When you browse on this site, cookies collect data to enhance your experience and personalize the content and advertising you see.
Visit our Privacy Policy to learn more. By continuing to use the site, you agree to this use of cookies and data.
  • In Romania
  • List of Countries
  • For 7 days
  • Water Temperature
  • Weather Map
  • Weather Widgets
  • user-avatar
    Login

    Hourly Weather Tarnobrzeg

    Today, 22 August, Thursday

    Time Temperature Precipitation Wind Pressure Humidity
    00:00 +15°C° 0 mm 2 mps 758 mmHg 83%
    01:00 +15°C° 0 mm 1 mps 758 mmHg 83%
    02:00 +14°C° 0 mm 2 mps 758 mmHg 82%
    03:00 +14°C° 0 mm 2 mps 757 mmHg 82%
    04:00 +14°C° 0 mm 2 mps 757 mmHg 82%
    05:00 +15°C° 0 mm 2 mps 758 mmHg 80%
    06:00 +16°C° 0 mm 2 mps 758 mmHg 78%
    07:00 +17°C° 0 mm 3 mps 758 mmHg 76%
    08:00 +18°C° 0 mm 3 mps 758 mmHg 72%
    09:00 +19°C° 0 mm 3 mps 758 mmHg 68%
    10:00 +21°C° 0 mm 4 mps 758 mmHg 64%
    11:00 +21°C° 0 mm 4 mps 758 mmHg 62%
    12:00 +22°C° 0 mm 4 mps 757 mmHg 59%
    13:00 +23°C° 0 mm 4 mps 757 mmHg 56%
    14:00 +23°C° 0 mm 4 mps 757 mmHg 57%
    15:00 +23°C° 0 mm 4 mps 757 mmHg 59%
    16:00 +23°C° 0 mm 4 mps 756 mmHg 60%
    17:00 +21°C° 0 mm 3 mps 756 mmHg 65%
    18:00 +20°C° 0 mm 3 mps 756 mmHg 69%
    19:00 +19°C° 0 mm 2 mps 756 mmHg 74%
    20:00 +18°C° 0.1 mm 3 mps 756 mmHg 77%
    21:00 +18°C° 0.1 mm 3 mps 757 mmHg 80%
    22:00 +17°C° 0.1 mm 3 mps 757 mmHg 83%
    23:00 +17°C° 0 mm 3 mps 757 mmHg 85%

    Tomorrow, 23 August, Friday

    Time Temperature Precipitation Wind Pressure Humidity
    00:00 +16°C° 0 mm 3 mps 757 mmHg 87%
    01:00 +16°C° 0 mm 3 mps 757 mmHg 89%
    02:00 +16°C° 0 mm 3 mps 756 mmHg 90%
    03:00 +14°C° 0 mm 3 mps 756 mmHg 91%
    04:00 +14°C° 0 mm 3 mps 756 mmHg 91%
    05:00 +16°C° 0 mm 3 mps 756 mmHg 88%
    06:00 +17°C° 0 mm 3 mps 756 mmHg 84%
    07:00 +18°C° 0 mm 4 mps 756 mmHg 81%
    08:00 +20°C° 0 mm 4 mps 756 mmHg 75%
    09:00 +22°C° 0 mm 4 mps 757 mmHg 69%
    10:00 +25°C° 0 mm 4 mps 757 mmHg 64%
    11:00 +25°C° 0 mm 4 mps 756 mmHg 62%
    12:00 +26°C° 0 mm 4 mps 756 mmHg 60%
    13:00 +26°C° 0 mm 5 mps 756 mmHg 58%
    14:00 +26°C° 0 mm 4 mps 756 mmHg 59%
    15:00 +26°C° 0 mm 4 mps 755 mmHg 61%
    16:00 +26°C° 0 mm 4 mps 755 mmHg 62%
    17:00 +25°C° 0 mm 4 mps 755 mmHg 65%
    18:00 +24°C° 0 mm 3 mps 755 mmHg 68%
    19:00 +21°C° 0 mm 3 mps 755 mmHg 71%
    20:00 +21°C° 0 mm 3 mps 755 mmHg 72%
    21:00 +20°C° 0 mm 3 mps 755 mmHg 72%
    22:00 +20°C° 0 mm 3 mps 755 mmHg 72%
    23:00 +19°C° 0 mm 3 mps 755 mmHg 74%

    Day after tomorrow, 24 August, Saturday

    Time Temperature Precipitation Wind Pressure Humidity
    00:00 +18°C° 0 mm 3 mps 755 mmHg 75%
    01:00 +18°C° 0 mm 3 mps 755 mmHg 76%
    02:00 +18°C° 0 mm 3 mps 754 mmHg 77%
    03:00 +17°C° 0 mm 3 mps 754 mmHg 78%
    04:00 +17°C° 0 mm 3 mps 754 mmHg 79%
    05:00 +18°C° 0 mm 4 mps 754 mmHg 78%
    06:00 +18°C° 0 mm 4 mps 754 mmHg 76%
    07:00 +19°C° 0 mm 4 mps 754 mmHg 74%
    08:00 +21°C° 0 mm 4 mps 754 mmHg 71%
    09:00 +22°C° 0 mm 5 mps 754 mmHg 68%
    10:00 +23°C° 0 mm 5 mps 754 mmHg 65%
    11:00 +25°C° 0 mm 5 mps 754 mmHg 63%
    12:00 +26°C° 0 mm 4 mps 754 mmHg 62%
    13:00 +27°C° 0 mm 4 mps 753 mmHg 60%
    14:00 +27°C° 0 mm 4 mps 753 mmHg 61%
    15:00 +28°C° 0 mm 4 mps 753 mmHg 62%
    16:00 +28°C° 0 mm 4 mps 752 mmHg 63%
    17:00 +26°C° 0 mm 4 mps 753 mmHg 68%
    18:00 +25°C° 0 mm 3 mps 753 mmHg 73%
    19:00 +22°C° 0 mm 3 mps 753 mmHg 77%
    20:00 +21°C° 0 mm 3 mps 753 mmHg 77%
    21:00 +21°C° 0 mm 3 mps 753 mmHg 77%
    22:00 +20°C° 0 mm 3 mps 753 mmHg 76%
    23:00 +20°C° 0.2 mm 3 mps 752 mmHg 77%

    25 August, Sunday

    Time Temperature Precipitation Wind Pressure Humidity
    00:00 +19°C° 0.2 mm 3 mps 752 mmHg 77%
    01:00 +19°C° 0.2 mm 3 mps 752 mmHg 78%
    02:00 +18°C° 0.2 mm 3 mps 752 mmHg 78%
    03:00 +18°C° 0.2 mm 3 mps 752 mmHg 79%
    04:00 +17°C° 0.2 mm 3 mps 752 mmHg 79%
    05:00 +18°C° 0 mm 3 mps 752 mmHg 78%
    06:00 +19°C° 0 mm 3 mps 752 mmHg 76%
    07:00 +20°C° 0 mm 4 mps 752 mmHg 75%
    08:00 +22°C° 0 mm 4 mps 752 mmHg 70%
    09:00 +25°C° 0 mm 4 mps 753 mmHg 65%
    10:00 +26°C° 0 mm 4 mps 753 mmHg 61%
    11:00 +28°C° 0 mm 4 mps 753 mmHg 58%
    12:00 +29°C° 0 mm 4 mps 752 mmHg 55%
    13:00 +30°C° 0 mm 5 mps 752 mmHg 52%
    14:00 +30°C° 0 mm 5 mps 752 mmHg 54%
    15:00 +30°C° 0 mm 5 mps 752 mmHg 55%
    16:00 +29°C° 0 mm 5 mps 752 mmHg 56%
    17:00 +28°C° 0 mm 4 mps 752 mmHg 62%
    18:00 +26°C° 0 mm 4 mps 752 mmHg 68%
    19:00 +23°C° 0 mm 4 mps 752 mmHg 74%
    20:00 +22°C° 0 mm 4 mps 752 mmHg 74%
    21:00 +22°C° 0 mm 4 mps 753 mmHg 75%
    22:00 +21°C° 0 mm 4 mps 753 mmHg 75%
    23:00 +20°C° 0 mm 4 mps 753 mmHg 79%

    26 August, Monday

    Time Temperature Precipitation Wind Pressure Humidity
    00:00 +20°C° 0 mm 4 mps 753 mmHg 82%
    01:00 +19°C° 0 mm 3 mps 753 mmHg 85%
    02:00 +19°C° 0 mm 3 mps 753 mmHg 87%
    03:00 +19°C° 0 mm 3 mps 753 mmHg 89%
    04:00 +19°C° 0 mm 3 mps 752 mmHg 91%
    05:00 +19°C° 0 mm 4 mps 753 mmHg 84%
    06:00 +20°C° 0 mm 4 mps 753 mmHg 78%
    07:00 +21°C° 0 mm 5 mps 753 mmHg 72%
    08:00 +23°C° 0 mm 5 mps 753 mmHg 67%
    09:00 +25°C° 0 mm 5 mps 753 mmHg 62%
    10:00 +27°C° 0 mm 5 mps 753 mmHg 57%
    11:00 +28°C° 0 mm 5 mps 753 mmHg 55%
    12:00 +29°C° 0 mm 5 mps 753 mmHg 53%
    13:00 +30°C° 0 mm 5 mps 753 mmHg 51%
    14:00 +30°C° 0 mm 5 mps 753 mmHg 52%
    15:00 +30°C° 0 mm 4 mps 752 mmHg 53%
    16:00 +30°C° 0 mm 4 mps 752 mmHg 54%
    17:00 +28°C° 0 mm 4 mps 752 mmHg 60%
    18:00 +26°C° 0 mm 3 mps 752 mmHg 67%
    19:00 +24°C° 0 mm 3 mps 752 mmHg 74%
    20:00 +22°C° 0 mm 3 mps 753 mmHg 76%
    21:00 +22°C° 0 mm 3 mps 753 mmHg 77%
    22:00 +21°C° 0 mm 3 mps 753 mmHg 79%
    23:00 +21°C° 0 mm 3 mps 753 mmHg 80%

    27 August, Tuesday

    Time Temperature Precipitation Wind Pressure Humidity
    00:00 +20°C° 0 mm 3 mps 753 mmHg 82%
    01:00 +19°C° 0 mm 3 mps 752 mmHg 83%
    02:00 +19°C° 0 mm 2 mps 752 mmHg 83%
    03:00 +19°C° 0 mm 2 mps 752 mmHg 82%
    04:00 +18°C° 0 mm 2 mps 752 mmHg 82%
    05:00 +19°C° 0 mm 2 mps 752 mmHg 79%
    06:00 +20°C° 0 mm 2 mps 752 mmHg 75%
    07:00 +21°C° 0 mm 2 mps 752 mmHg 72%
    08:00 +24°C° 0 mm 2 mps 752 mmHg 67%
    09:00 +26°C° 0 mm 2 mps 752 mmHg 62%
    10:00 +28°C° 0 mm 2 mps 752 mmHg 56%
    11:00 +29°C° 0 mm 2 mps 752 mmHg 53%
    12:00 +30°C° 0 mm 2 mps 752 mmHg 50%
    13:00 +31°C° 0 mm 2 mps 752 mmHg 47%
    14:00 +31°C° 0 mm 2 mps 751 mmHg 48%
    15:00 +31°C° 0 mm 2 mps 751 mmHg 48%
    16:00 +31°C° 0 mm 2 mps 751 mmHg 49%
    17:00 +29°C° 0 mm 2 mps 751 mmHg 56%
    18:00 +27°C° 0 mm 2 mps 751 mmHg 63%
    19:00 +26°C° 0 mm 2 mps 751 mmHg 70%
    20:00 +25°C° 0.1 mm 2 mps 751 mmHg 72%
    21:00 +24°C° 0.1 mm 2 mps 751 mmHg 75%
    22:00 +23°C° 0.1 mm 2 mps 751 mmHg 77%
    23:00 +23°C° 0 mm 2 mps 751 mmHg 77%
    Show more